User: anonymous   Login
Location: Unspecified
(50.7693°N, 0.0000°E)
Time: 11:52:14
(UTC+00:00)
Language:

Explorer 7 - Orbit

View from above orbital plane
View from above orbital plane
View from above satellite
View from above satellite

Ground track
Ground track

The orbit data is extracted from the following two-line orbital elements,

1    22U 59009A   20217.89025225 -.00000040 +00000-0 +20532-4 0  9993
2    22 050.2822 234.7922 0139369 083.8056 277.8748 14.95168542477629
Epoch (UTC): 04 August 2020 21:21:57
Eccentricity: 0.0139369
inclination: 50.2822°
perigee height: 485 km
apogee height: 679 km
right ascension of ascending node: 234.7922°
argument of perigee: 83.8056°
revolutions per day: 14.95168542
mean anomaly at epoch: 277.8748°
orbit number at epoch: 47762

The dashed part of the orbit path shows where the satellite is in the earth's shadow,  

DLR